CAPE
492 150 21 0 0 0 0 0 0 0 0 25 66 35 0 0 0 0 44 203 191 113 53 255 173 68 113 72 41 0 309 320 301
527 141 45 0 0 0 0 0 0 0 0 0 71 6 0 40 49 82 220 226 146 93 4 0 156 198 202 196 126 274 318 278 261
545 110 65 47 0 0 0 0 0 0 0 9 77 36 22 31 93 97 134 131 60 0 0 0 0 3 3 128 276 264 219 220 182
382 112 81 65 30 12 19 23 23 14 2 0 6 22 0 3 0 0 0 42 0 0 0 0 0 0 0 0 0 85 110 94 61
309 134 99 66 44 24 8 32 38 45 20 0 0 0 2 6 0 0 16 29 0 0 0 0 0 0 0 0 0 0 0 6 22
96 60 51 65 55 30 22 29 54 26 0 0 0 0 11 13 9 9 0 38 1 0 0 0 0 0 0 0 0 0 0 0 2
59 46 40 50 47 39 38 44 46 11 0 0 0 0 6 11 11 9 6 86 45 2 0 0 0 0 0 0 0 0 0 0 1
34 27 33 44 23 47 47 46 41 11 0 0 0 0 0 0 1 3 4 81 110 66 0 0 0 0 0 0 0 0 0 0 0
0 4 0 3 12 22 28 31 25 7 0 0 0 0 0 0 0 0 0 19 146 98 53 0 0 0 0 0 0 0 0 0 0
0 0 0 0 0 0 0 2 2 0 0 0 0 0 0 0 0 0 0 0 73 145 96 44 0 0 0 0 0 0 0 0 0
0 0 0 0 0 0 0 0 0 0 0 0 0 0 0 0 0 0 0 0 1 89 126 80 32 3 3 3 0 0 0 0 4
0 0 0 0 0 0 0 0 0 0 0 0 0 0 0 0 0 0 0 0 0 1 92 104 57 24 4 8 11 0 0 0 0
0 0 0 0 0 0 0 0 0 0 0 2 0 0 0 0 1 17 37 37 26 29 12 114 150 61 26 11 16 17 0 0 0
16 9 6 27 49 44 42 69 78 71 49 50 41 40 40 42 31 46 66 60 78 56 47 39 108 238 152 33 35 31 27 0 0
97 78 73 70 73 116 107 132 134 106 84 42 24 42 37 12 10 35 11 16 31 35 30 39 36 16 120 136 41 55 39 0 0
288 288 294 201 201 198 169 118 77 31 32 25 23 0 0 0 0 0 0 0 0 4 38 49 33 15 2 150 289 182 101 88 5
411 402 383 299 250 249 195 86 42 15 47 42 14 4 2 0 1 7 5 8 2 0 0 0 1 8 6 2 67 288 142 139 148
200 194 209 234 221 232 248 189 102 94 38 11 41 37 10 9 12 0 3 5 5 0 0 0 0 1 4 3 2 6 144 139 159
0 0 0 0 65 200 267 164 117 60 72 14 18 49 46 37 5 3 7 8 1 0 0 0 0 0 0 0 0 5 20 83 194
0 0 0 0 0 2 102 50 87 94 73 50 49 46 29 4 12 16 7 0 0 2 0 0 0 0 0 0 0 7 18 23 174
CIN
-6 -65 -25 -0 -0 -0 -0 -0 -0 -0 -0 -58 -41 -62 -0 -0 -0 -0 -19 -0 -0 -0 -5 -33 -43 -4 -0 -5 -31 -0 -0 -0 -0
-19 -90 -92 -0 -0 -0 -0 -0 -0 -0 -0 -0 -56 -22 -0 -54 -33 -22 -0 -0 -2 -7 -2 -0 -13 -15 -0 -0 -8 -2 -0 -2 -3
-38 -77 -111 -123 -0 -0 -0 -0 -0 -0 -0 -55 -71 -109 -84 -80 -32 -30 -14 -14 -29 -0 -0 -0 -0 -0 -0 -5 -2 -4 -9 -13 -27
-68 -89 -119 -127 -173 -206 -182 -164 -166 -164 -56 -0 -34 -155 -0 -26 -0 -0 -0 -53 -0 -0 -0 -0 -0 -0 -0 -0 -0 -6 -7 -13 -51
-73 -95 -98 -139 -170 -193 -212 -174 -164 -169 -228 -19 -0 -0 -63 -173 -8 -4 -110 -101 -0 -0 -0 -0 -0 -0 -0 -0 -0 -0 -0 -6 -9
-121 -150 -174 -149 -152 -184 -197 -179 -151 -227 -0 -0 -0 -0 -220 -185 -173 -157 -0 -79 -24 -0 -0 -0 -0 -0 -0 -0 -0 -0 -0 -0 -0
-161 -182 -202 -175 -167 -183 -168 -157 -148 -277 -0 -0 -0 -0 -268 -206 -178 -163 -169 -41 -83 -32 -0 -0 -0 -0 -0 -0 -0 -0 -0 -0 -0
-189 -207 -207 -163 -197 -156 -148 -132 -134 -227 -0 -0 -0 -0 -0 -0 -30 -89 -153 -34 -30 -65 -20 -0 -0 -0 -0 -0 -0 -0 -0 -0 -0
-0 -240 -0 -178 -226 -186 -167 -152 -156 -222 -0 -0 -0 -0 -0 -0 -0 -0 -0 -129 -10 -33 -64 -0 -0 -0 -0 -0 -0 -0 -0 -0 -0
-0 -0 -0 -0 -0 -0 -0 -102 -114 -0 -0 -0 -0 -0 -0 -0 -0 -0 -0 -0 -45 -7 -32 -73 -0 -0 -0 -0 -0 -0 -0 -0 -0
-0 -0 -0 -0 -0 -0 -0 -0 -0 -0 -0 -0 -0 -0 -0 -0 -0 -0 -0 -0 -15 -24 -3 -29 -66 -0 -0 -0 -0 -0 -0 -0 -0
-0 -0 -0 -0 -0 -0 -0 -0 -0 -0 -0 -0 -0 -0 -0 -0 -0 -0 -0 -0 -0 -9 -21 -1 -24 -61 -0 -0 -0 -0 -0 -0 -0
-0 -0 -0 -0 -0 -0 -0 -0 -0 -0 -0 -10 -0 -0 -0 -0 -15 -53 -44 -44 -43 -38 -36 -19 -1 -8 -27 -0 -0 -0 -0 -0 -0
-43 -15 -6 -13 -12 -14 -13 -12 -11 -21 -19 -14 -21 -18 -23 -22 -17 -19 -11 -18 -28 -24 -16 -5 -18 -5 -0 -7 -0 -0 -0 -0 -0
-13 -21 -20 -10 -7 -5 -5 -7 -3 -9 -14 -15 -24 -28 -30 -3 -2 -24 -8 -33 -31 -28 -15 -3 -2 -2 -12 -1 -16 -19 -0 -0 -0
-8 -9 -7 -7 -5 -6 -5 -9 -16 -22 -20 -9 -32 -0 -0 -0 -0 -0 -0 -0 -0 -8 -6 -6 -2 -0 -0 -9 -0 -0 -13 -2 -0
-6 -8 -10 -7 -8 -12 -7 -15 -17 -17 -17 -4 -0 -0 -0 -0 -4 -10 -6 -5 -3 -0 -0 -0 -0 -1 -10 -7 -33 -3 -14 -12 -5
-12 -18 -18 -16 -11 -15 -10 -5 -13 -4 -12 -12 -1 -0 -3 -8 -10 -1 -3 -5 -6 -0 -0 -0 -0 -1 -5 -0 -4 -5 -17 -9 -1
-0 -0 -0 -0 -35 -6 -1 -0 -3 -40 -37 -2 -5 -0 -0 -0 -1 -3 -1 -9 -15 -2 -0 -0 -0 -0 -2 -0 -0 -0 -0 -4 -2
-0 -0 -0 -0 -0 -0 -12 -59 -31 -30 -9 -1 -0 -0 -0 -0 -0 -0 -0 -0 -0 -0 -0 -0 -0 -0 -0 -0 -0 -8 -1 -0 -0
Wind_Speed
15 20 nan nan nan nan nan nan nan nan nan nan nan nan nan nan nan nan nan 23 27 26 nan 25 27 nan 18 nan nan nan 24 25 27
16 21 nan nan nan nan nan nan nan nan nan nan nan nan nan nan nan nan 21 23 25 nan nan nan 25 26 25 24 23 25 27 28 29
22 22 nan nan nan nan nan nan nan nan nan nan nan nan nan nan nan nan 22 22 nan nan nan nan nan nan nan 26 27 29 27 27 28
25 22 nan nan nan nan nan nan nan nan nan nan nan nan nan nan nan nan nan nan nan nan nan nan nan nan nan nan nan nan 28 nan nan
21 22 nan nan nan nan nan nan nan nan nan nan nan nan nan nan nan nan nan nan nan nan nan nan nan nan nan nan nan nan nan nan nan
nan nan nan nan nan nan nan nan nan nan nan nan nan nan nan nan nan nan nan nan nan nan nan nan nan nan nan nan nan nan nan nan nan
nan nan nan nan nan nan nan nan nan nan nan nan nan nan nan nan nan nan nan nan nan nan nan nan nan nan nan nan nan nan nan nan nan
nan nan nan nan nan nan nan nan nan nan nan nan nan nan nan nan nan nan nan nan 24 nan nan nan nan nan nan nan nan nan nan nan nan
nan nan nan nan nan nan nan nan nan nan nan nan nan nan nan nan nan nan nan nan 25 nan nan nan nan nan nan nan nan nan nan nan nan
nan nan nan nan nan nan nan nan nan nan nan nan nan nan nan nan nan nan nan nan nan 29 nan nan nan nan nan nan nan nan nan nan nan
nan nan nan nan nan nan nan nan nan nan nan nan nan nan nan nan nan nan nan nan nan nan 29 nan nan nan nan nan nan nan nan nan nan
nan nan nan nan nan nan nan nan nan nan nan nan nan nan nan nan nan nan nan nan nan nan nan 32 nan nan nan nan nan nan nan nan nan
nan nan nan nan nan nan nan nan nan nan nan nan nan nan nan nan nan nan nan nan nan nan nan 34 32 nan nan nan nan nan nan nan nan
nan nan nan nan nan nan nan nan nan nan nan nan nan nan nan nan nan nan nan nan nan nan nan nan 36 36 35 nan nan nan nan nan nan
nan nan nan nan nan 32 34 32 35 33 nan nan nan nan nan nan nan nan nan nan nan nan nan nan nan nan 34 35 nan nan nan nan nan
30 30 31 34 34 34 35 37 nan nan nan nan nan nan nan nan nan nan nan nan nan nan nan nan nan nan nan 38 38 38 39 nan nan
35 34 34 36 37 36 38 nan nan nan nan nan nan nan nan nan nan nan nan nan nan nan nan nan nan nan nan nan nan 44 42 35 34
40 37 37 37 40 39 40 44 47 nan nan nan nan nan nan nan nan nan nan nan nan nan nan nan nan nan nan nan nan nan 41 38 32
nan nan nan nan nan 42 43 46 46 nan nan nan nan nan nan nan nan nan nan nan nan nan nan nan nan nan nan nan nan nan nan nan 39
nan nan nan nan nan nan 46 nan nan nan nan nan nan nan nan nan nan nan nan nan nan nan nan nan nan nan nan nan nan nan nan nan 40
Wind_Direction
321 312 nan nan nan nan nan nan nan nan nan nan nan nan nan nan nan nan nan 301 301 292 nan 283 304 nan 296 nan nan nan 284 291 287
323 312 nan nan nan nan nan nan nan nan nan nan nan nan nan nan nan nan 303 300 292 nan nan nan 290 289 283 294 291 288 286 286 288
311 313 nan nan nan nan nan nan nan nan nan nan nan nan nan nan nan nan 307 298 nan nan nan nan nan nan nan 283 287 288 286 286 287
316 315 nan nan nan nan nan nan nan nan nan nan nan nan nan nan nan nan nan nan nan nan nan nan nan nan nan nan nan nan 286 nan nan
309 314 nan nan nan nan nan nan nan nan nan nan nan nan nan nan nan nan nan nan nan nan nan nan nan nan nan nan nan nan nan nan nan
nan nan nan nan nan nan nan nan nan nan nan nan nan nan nan nan nan nan nan nan nan nan nan nan nan nan nan nan nan nan nan nan nan
nan nan nan nan nan nan nan nan nan nan nan nan nan nan nan nan nan nan nan nan nan nan nan nan nan nan nan nan nan nan nan nan nan
nan nan nan nan nan nan nan nan nan nan nan nan nan nan nan nan nan nan nan nan 322 nan nan nan nan nan nan nan nan nan nan nan nan
nan nan nan nan nan nan nan nan nan nan nan nan nan nan nan nan nan nan nan nan 324 nan nan nan nan nan nan nan nan nan nan nan nan
nan nan nan nan nan nan nan nan nan nan nan nan nan nan nan nan nan nan nan nan nan 324 nan nan nan nan nan nan nan nan nan nan nan
nan nan nan nan nan nan nan nan nan nan nan nan nan nan nan nan nan nan nan nan nan nan 319 nan nan nan nan nan nan nan nan nan nan
nan nan nan nan nan nan nan nan nan nan nan nan nan nan nan nan nan nan nan nan nan nan nan 321 nan nan nan nan nan nan nan nan nan
nan nan nan nan nan nan nan nan nan nan nan nan nan nan nan nan nan nan nan nan nan nan nan 326 327 nan nan nan nan nan nan nan nan
nan nan nan nan nan nan nan nan nan nan nan nan nan nan nan nan nan nan nan nan nan nan nan nan 322 318 321 nan nan nan nan nan nan
nan nan nan nan nan 298 301 305 302 303 nan nan nan nan nan nan nan nan nan nan nan nan nan nan nan nan 327 330 nan nan nan nan nan
289 289 293 295 298 300 301 299 nan nan nan nan nan nan nan nan nan nan nan nan nan nan nan nan nan nan nan 324 325 324 320 nan nan
288 289 289 293 293 297 298 nan nan nan nan nan nan nan nan nan nan nan nan nan nan nan nan nan nan nan nan nan nan 321 324 320 314
278 282 284 287 291 291 294 297 299 nan nan nan nan nan nan nan nan nan nan nan nan nan nan nan nan nan nan nan nan nan 317 320 316
nan nan nan nan nan 288 289 292 295 nan nan nan nan nan nan nan nan nan nan nan nan nan nan nan nan nan nan nan nan nan nan nan 318
nan nan nan nan nan nan 286 nan nan nan nan nan nan nan nan nan nan nan nan nan nan nan nan nan nan nan nan nan nan nan nan nan 317